Regional Weather Roundup
Issued by NWS

Home | Current Version | Previous Version | Text Only | Print | Product List | Glossary Off
Versions: 1 2 3 4 5 6 7 8 9 10 11 12 13 14 15 16 17 18 19 20 21 22 23 24 25 26 27 28 29 30 31 32 33 34 35 36 37 38 39 40 41 42 43 44 45 46 47 48 49 50

922
ASUS43 KOAX 220102
RWRNE

WEATHER ROUNDUP FOR NEBRASKA
NATIONAL WEATHER SERVICE OMAHA NE
800 PM CDT SAT APR 21 2018

NOTES: SATELLITE DATA IS BEING USED TO AUGMENT CLOUD COVER ABOVE
       12000 FEET.
       "FAIR" INDICATES FEW OR NO CLOUDS BELOW 12,000 FEET WITH NO
       SIGNIFICANT WEATHER AND/OR OBSTRUCTIONS TO VISIBILITY.


NEZ001>004-019>022-054>056-220200-
NEBRASKA PANHANDLE

CITY           SKY/WX    TMP DP  RH WIND       PRES   REMARKS
SCOTTSBLUFF    PTCLDY    45  38  76 E9        30.16F
ALLIANCE       CLOUDY    41  36  82 SE13      30.18S
CHADRON        CLEAR     46  36  68 S12       30.16S
GORDON         CLOUDY    43  37  79 SE7       30.19R
KIMBALL        MOCLDY    40  35  83 S6        30.16F
SIDNEY         CLOUDY    41  33  73 SE6       30.19S
$$

NEZ057>060-069>072-079>082-220200-
SOUTHWEST NEBRASKA

CITY           SKY/WX    TMP DP  RH WIND       PRES   REMARKS
NORTH PLATTE   CLOUDY    44  37  76 SE6       30.23R
IMPERIAL       CLOUDY    42  39  89 CALM      30.22S
LEXINGTON      CLOUDY    44  39  84 CALM      30.24R
MCCOOK         CLOUDY    43  39  86 E10       30.23R
OGALLALA       CLOUDY    42  39  89 CALM      30.22S
$$

NEZ005>010-023>029-035>040-094-220200-
NORTH CENTRAL NEBRASKA

CITY           SKY/WX    TMP DP  RH WIND       PRES   REMARKS
VALENTINE      MOCLDY    48  35  60 SE10      30.23S
AINSWORTH      CLOUDY    45  38  78 E7        30.24S
BROKEN BOW     CLOUDY    44  38  79 SE3       30.23S
O`NEILL        CLOUDY    47  37  68 E5        30.26S
ORD            CLOUDY    45  38  76 E3        30.24R
THEDFORD       CLOUDY    44  37  76 SE10      30.24S
$$

NEZ041-046>049-061>064-073>077-083>087-220200-
SOUTH CENTRAL NEBRASKA

CITY           SKY/WX    TMP DP  RH WIND       PRES   REMARKS
GRAND ISLAND   CLOUDY    45  39  79 NE5       30.24R
AURORA         CLOUDY    43  40  89 NE5       30.23R
HASTINGS       CLOUDY    44  42  93 N6        30.23R
HEBRON         CLOUDY    46  42  85 CALM      30.22S
HOLDREGE       CLOUDY    42  41  95 E6        30.23R
KEARNEY        CLOUDY    43  39  86 NE6       30.24R
YORK             N/A     46  39  76 CALM      30.24R
$$

NEZ011>018-030>034-042>045-220200-
NORTHEAST NEBRASKA

CITY           SKY/WX    TMP DP  RH WIND       PRES   REMARKS
NORFOLK        CLOUDY    48  35  60 NE5       30.24R
ALBION         CLOUDY    46  37  68 N6        30.25S
BLAIR          CLOUDY    51  35  53 NE7       30.23S
COLUMBUS       CLOUDY    47  33  58 N3        30.24S
FREMONT        CLOUDY    53  32  46 E6        30.24R
TEKAMAH        CLOUDY    50  34  54 NE6       30.25S
WAYNE          CLOUDY    49  33  53 E3        30.26R
$$

NEZ050>053-065>068-078-088>093-220200-
SOUTHEAST NEBRASKA

CITY           SKY/WX    TMP DP  RH WIND       PRES   REMARKS
LINCOLN        CLOUDY    49  36  61 E10       30.23S
OMAHA EPPLEY   CLOUDY    52  35  52 N6        30.24S
BEATRICE       CLOUDY    50  40  69 NE6       30.20S
FALLS CITY     CLOUDY    53  36  52 NE7       30.17S
NEBRASKA CITY  CLOUDY    53  36  52 NE8       30.20S
PLATTSMOUTH    CLOUDY    53  35  50 N9        30.22F
$$

NEZ044-045-051>053-067-220200-
OMAHA AREA

CITY           SKY/WX    TMP DP  RH WIND       PRES   REMARKS
OMAHA EPPLEY   CLOUDY    52  35  52 N6        30.24S
BLAIR          CLOUDY    51  35  53 NE7       30.23S
FREMONT        CLOUDY    53  32  46 E6        30.24R
MILLARD        MOCLDY    55  35  47 CALM      30.24S
OFFUTT AFB     MOCLDY    53  33  47 NE7       30.22S
PLATTSMOUTH    CLOUDY    53  35  50 N9        30.22F
WAHOO          CLOUDY    50  29  44 E6        30.23S
$$




USA.gov is the U.S. government's official web portal to all federal, state and local government web resources and services.